This is the latest recevied weather packets stored in our database for station/object AC8UJ. If no packets are shown the sender has not sent any weather packets the latest 10 day(s).
| Time | Temp. | Humidity | Pressure | Rain* | Wind** | Luminosity | Snow |
|---|---|---|---|---|---|---|---|
| 1777207216 | 10° C | 84% | - | 0 mm | - | - | - |
| 1777206015 | 10° C | 84% | - | 0 mm | - | - | - |
| 1777204816 | 10° C | 85% | - | 0 mm | - | - | - |
| 1777200617 | 9.44° C | 85% | - | 0 mm | - | - | - |
| 1777195817 | 10° C | 85% | - | 0 mm | - | - | - |
| 1777194015 | 10° C | 85% | - | 0 mm | - | - | - |
| 1777193159 | 10° C | 84% | - | 0 mm | - | - | - |
| 1777192516 | 10.56° C | 85% | - | 0 mm | - | - | - |
| 1777191318 | 10.56° C | 84% | - | 0 mm | - | - | - |
| 1777186516 | 12.22° C | 85% | - | 0 mm | - | - | - |
| 1777181715 | 13.89° C | 85% | - | 0 mm | - | - | - |
| 1777179936 | 14.44° C | 85% | - | 0 mm | - | - | - |
| 1777178717 | 14.44° C | 84% | - | 0 mm | - | - | - |
| 1777178115 | 15° C | 84% | - | 0 mm | - | - | - |
| 1777175758 | 16.11° C | 83% | - | 0 mm | - | - | - |
| 1777171516 | 17.22° C | 74% | - | 0 mm | - | - | - |
| 1777170337 | 17.22° C | 71% | - | 0 mm | - | - | - |
| 1777166760 | 18.33° C | 66% | - | 0 mm | - | - | - |
| 1777164316 | 19.44° C | 61% | - | 0 mm | - | - | - |
| 1777163736 | 19.44° C | 60% | - | 0 mm | - | - | - |
| 1777160715 | 21.11° C | 58% | - | 0 mm | - | - | - |
| 1777158916 | 22.22° C | 55% | - | 0 mm | - | - | - |
| 1777155916 | 22.78° C | 51% | - | 0 mm | - | - | - |
| 1777155317 | 22.78° C | 51% | - | 0 mm | - | - | - |
| 1777149318 | 22.78° C | 53% | - | 0 mm | - | - | - |
* Rain latest hour (hover to see other rain measurements)
** Current wind speed in m/s (hover to see current wind gust speed)